Weather in Yuzhnii

Kazakhstan     49°21′40″N   72°54′17″E
temp.,
°C
wind,
m/s
gust,
m/s
humid.,
%
clouds,
%
prec.,
mm/h
press.,
hPa
HPBL,
m
25 february, thu
thu2500:00−23sw61694100 0.1 1022890
03:00−22sw71893100 0.1 10221303
06:00−23sw102291100 0.2 10231595
09:00−24sw131987100 0.1 10241089
12:00−25sw131888100 0.1 1027939
15:00−24wsw121689100 0.1 10291016
18:00−24wsw101590100 0.2 1032931
21:00−25wsw91592100 0.1 1035611
26 february, fri
fri2600:00−26wsw71395100 0.1 1038437
03:00−29sw51098100 0.1 1040223
06:00−29sw4998100 0.1 1041203
09:00−29ssw4798100 0.0 1042148
12:00−25sw589399 0.0 1041364
15:00−23sw588982 0.0 1040539
18:00−25ssw349484 0.0 103937
21:00−27s339535 0.0 104120
27 february, sat
sat2700:00−27s339533 0.0 104020
03:00−27s339847 0.0 103920
06:00−24sse239674 0.0 103823
09:00−21sse3493100 0.0 103795
12:00−16ssw5886100 0.0 1036438
15:00−13ssw588684 0.0 1034564
18:00−15s348891 0.0 103463
21:00−19sse448650 0.0 103638
28 february, sun
sun2800:00−19sse448075 0.0 103579
03:00−16sse41081100 0.0 1033215
06:00−14sse61387100 0.0 1030343
09:00−11s81889100 0.1 1028594
12:00−7s111987100 0.2 1025657
15:00−4ssw111792100 0.5 1024702
18:00−4ssw91789100 0.8 1023682
21:00−4ssw91689100 0.0 1023514
1 march, mon
mon100:00−4ssw91592100 0.3 1023542
03:00−4ssw91692100 0.1 1023515
06:00−5ssw81588100 0.4 1023482
09:00−4ssw71482100 0.0 1023484
12:00−3sw81389100 0.1 1022499
15:00−1sw71282100 0.1 1021651
18:00−2ssw51083100 0.1 1021320
21:00−3ssw51181100 0.0 1022269